CW3847 La Orotava ES current weather conditions

sailwx.info

Wind from 276 at 0 knots gusting 5

Air temperature 19.4° C
Dewpoint 14.3° C

Last reported at 2016-Dec-04 11:55 UTC.
Time now 2016-Dec-04 12:19 UTC

Location: N 28°23' W 016°31'.
View on Google Maps.

See reports from other nearby stations

  
Tides and Currents Weather Stations Pressure Air Temp Water Temp Dewpoint Dewpoint Depression Visibility Wind Speed Wind Dir Waves Ship Positions
date/time (UTC)wind fromknots sea level pressurealtimeterstation pressurevisibilityair tempwater tempwave heightnotes
2016-Dec-04 11:55 276 0 gusting 5 19.4
2016-Dec-04 11:50 266 19.4
2016-Dec-04 11:45 266 19.4
2016-Dec-04 11:40 266 20.0
2016-Dec-04 11:35 265 0 gusting 3 20.0
2016-Dec-04 11:30 266 20.0
2016-Dec-04 11:25 20.0
2016-Dec-04 11:20 266 20.0
2016-Dec-04 11:15 266 19.4
2016-Dec-04 11:10 264 18.9
2016-Dec-04 11:05 263 0 gusting 2 18.9
2016-Dec-04 11:00 262 0 gusting 2 18.9
2016-Dec-04 10:55 261 18.9
2016-Dec-04 10:50 261 18.9
2016-Dec-04 10:45 261 18.3
2016-Dec-04 10:40 262 18.3
2016-Dec-04 10:35 261 18.3
2016-Dec-04 10:30 261 0 gusting 2 18.3
2016-Dec-04 10:25 262 0 gusting 2 18.3
2016-Dec-04 10:20 261 18.3
2016-Dec-04 10:15 261 18.3
2016-Dec-04 10:10 262 17.8
2016-Dec-04 10:05 262 0 gusting 2 17.8
2016-Dec-04 10:00 262 1 gusting 3 17.8
2016-Dec-04 09:55 262 1 gusting 3 17.8
2016-Dec-04 09:50 262 1 gusting 3 17.8
2016-Dec-04 09:45 263 1 gusting 3 17.8
2016-Dec-04 09:40 263 1 gusting 5 17.8
2016-Dec-04 09:35 265 1 gusting 5 17.8
2016-Dec-04 09:30 263 1 gusting 5 17.8
2016-Dec-04 09:25 231 1 gusting 4 17.8
2016-Dec-04 09:20 200 1 gusting 4 17.8
2016-Dec-04 09:15 186 1 gusting 4 17.2
2016-Dec-04 09:10 183 1 gusting 4 17.2
2016-Dec-04 09:05 194 1 gusting 5 17.2
2016-Dec-04 09:00 216 1 gusting 5 17.2
2016-Dec-04 08:55 235 1 gusting 3 16.7
2016-Dec-04 08:50 237 1 gusting 3 16.7
2016-Dec-04 08:45 237 1 gusting 3 16.7
2016-Dec-04 08:40 219 1 gusting 5 16.7
2016-Dec-04 08:35 200 2 gusting 5 16.7
2016-Dec-04 08:30 187 2 gusting 6 16.7
2016-Dec-04 08:25 185 2 gusting 6 16.1
2016-Dec-04 08:20 182 3 gusting 6 16.1
2016-Dec-04 08:15 188 3 gusting 6 16.1
2016-Dec-04 08:10 192 3 gusting 7 16.1
2016-Dec-04 08:05 202 4 gusting 7 16.1
2016-Dec-04 08:00 208 4 gusting 7 16.1
2016-Dec-04 07:55 208 2 gusting 5 15.6
2016-Dec-04 07:50 204 2 gusting 5 15.6
2016-Dec-04 07:45 203 2 gusting 6 16.1
2016-Dec-04 07:40 223 4 gusting 8 16.1
2016-Dec-04 07:35 238 4 gusting 8 16.1
2016-Dec-04 07:30 237 2 gusting 6 16.1
2016-Dec-04 07:25 216 2 gusting 5 16.1
2016-Dec-04 07:20 198 1 gusting 5 16.1
2016-Dec-04 07:15 164 0 gusting 3 16.1
2016-Dec-04 07:10 166 1 gusting 5 15.6
2016-Dec-04 07:00 211 1 gusting 5 16.1
2016-Dec-04 06:55 225 1 gusting 2 16.1
2016-Dec-04 06:50 225 1 gusting 2 15.6
2016-Dec-04 06:45 225 1 gusting 2 15.6
2016-Dec-04 06:40 225 0 gusting 2 15.6
2016-Dec-04 06:35 225 0 gusting 2 16.1
2016-Dec-04 06:30 225 15.6
2016-Dec-04 06:25 225 15.6
2016-Dec-04 06:20 225 15.6
2016-Dec-04 06:15 225 15.6
2016-Dec-04 06:10 225 15.6
2016-Dec-04 06:05 225 0 gusting 2 16.1
2016-Dec-04 06:00 225 0 gusting 3 16.1
2016-Dec-04 05:55 225 1 gusting 4 16.1
2016-Dec-04 05:50 217 1 gusting 5 16.1
2016-Dec-04 05:45 194 1 gusting 5 16.1
2016-Dec-04 05:40 163 0 gusting 3 16.1
2016-Dec-04 05:35 163 1 gusting 3 16.1
2016-Dec-04 05:30 163 0 gusting 3 15.6
2016-Dec-04 05:25 163 0 gusting 6 15.6
2016-Dec-04 05:20 166 2 gusting 6 15.6
2016-Dec-04 05:15 171 2 gusting 4 15.6
2016-Dec-04 05:10 174 1 gusting 3 15.6
2016-Dec-04 05:05 172 1 gusting 5 15.6
2016-Dec-04 05:00 169 2 gusting 5 15.6
2016-Dec-04 04:55 166 2 gusting 5 15.6
2016-Dec-04 04:50 165 2 gusting 5 15.6
2016-Dec-04 04:45 163 3 gusting 4 15.6
2016-Dec-04 04:40 161 2 gusting 4 15.6
2016-Dec-04 04:35 160 2 gusting 5 15.6
2016-Dec-04 04:30 161 3 gusting 5 15.6
2016-Dec-04 04:25 165 3 gusting 5 15.6
2016-Dec-04 04:20 170 2 gusting 5 15.6
2016-Dec-04 04:15 168 2 gusting 5 15.6
2016-Dec-04 04:10 159 2 gusting 5 15.6
2016-Dec-04 04:05 150 1 gusting 3 16.1
2016-Dec-04 04:00 149 2 gusting 4 16.1
2016-Dec-04 03:55 147 2 gusting 4 16.1
2016-Dec-04 03:50 146 1 gusting 4 16.1
2016-Dec-04 03:45 145 1 gusting 4 16.1
2016-Dec-04 03:40 146 1 gusting 4 16.1
2016-Dec-04 03:35 147 1 gusting 3 16.1
2016-Dec-04 03:30 148 1 gusting 3 16.1
2016-Dec-04 03:25 149 1 gusting 3 16.1
2016-Dec-04 03:20 161 1 gusting 4 16.7
2016-Dec-04 03:15 177 1 gusting 4 16.7
2016-Dec-04 03:10 182 1 gusting 3 16.7
2016-Dec-04 03:05 187 1 gusting 3 16.7
2016-Dec-04 03:00 195 0 gusting 3 16.7
2016-Dec-04 02:55 201 16.7
2016-Dec-04 02:50 201 0 gusting 2 16.7
2016-Dec-04 02:45 195 0 gusting 2 16.7
2016-Dec-04 02:40 186 0 gusting 2 16.7
2016-Dec-04 02:35 178 1 gusting 4 16.7
2016-Dec-04 02:30 206 1 gusting 4 16.7
2016-Dec-04 02:25 237 1 gusting 3 16.7
2016-Dec-04 02:20 241 16.7
2016-Dec-04 02:15 17.2
2016-Dec-04 02:10 17.2
2016-Dec-04 02:05 17.2
2016-Dec-04 02:00 256 17.2
2016-Dec-04 01:55 256 17.2
2016-Dec-04 01:50 256 17.2
2016-Dec-04 01:45 256 17.2
2016-Dec-04 01:40 256 17.2
2016-Dec-04 01:35 256 17.2
2016-Dec-04 01:30 256 17.2
2016-Dec-04 01:25 257 0 gusting 3 17.2
2016-Dec-04 01:20 276 0 gusting 3 17.2
2016-Dec-04 01:15 301 0 gusting 2 17.2
2016-Dec-04 01:10 305 0 gusting 2 17.8
2016-Dec-04 01:05 314 1 gusting 7 17.8
2016-Dec-04 01:00 299 2 gusting 7 17.8
2016-Dec-04 00:55 226 1 gusting 5 17.8
2016-Dec-04 00:50 211 2 gusting 5 17.8
2016-Dec-04 00:45 196 2 gusting 5 17.8
2016-Dec-04 00:40 195 1 gusting 4 17.8
2016-Dec-04 00:35 217 1 gusting 3 17.8
2016-Dec-04 00:30 227 1 gusting 5 17.8
2016-Dec-04 00:25 237 2 gusting 5 17.8
2016-Dec-04 00:20 250 1 gusting 4 17.8
2016-Dec-04 00:15 256 0 gusting 2 17.8
2016-Dec-04 00:10 257 0 gusting 2 17.8
2016-Dec-04 00:05 271 0 gusting 2 17.8
2016-Dec-03 23:55 285 0 gusting 3 17.8
2016-Dec-03 23:50 300 1 gusting 6 17.8
2016-Dec-03 23:45 299 4 gusting 11 17.8
2016-Dec-03 23:40 298 6 gusting 11 18.3
2016-Dec-03 23:35 299 5 gusting 12 18.3
2016-Dec-03 23:30 294 3 gusting 12 18.3
2016-Dec-03 23:25 286 2 gusting 9 18.3
2016-Dec-03 23:20 279 2 gusting 9 18.3
2016-Dec-03 23:15 310 2 gusting 6 18.3
2016-Dec-03 23:10 339 1 gusting 4 18.3
2016-Dec-03 23:05 349 1 gusting 5 17.8
2016-Dec-03 23:00 016 1 gusting 5 17.8
2016-Dec-03 22:55 045 0 gusting 2 17.8
2016-Dec-03 22:50 039 1 gusting 4 17.8
2016-Dec-03 22:45 022 1 gusting 5 17.8
2016-Dec-03 22:40 192 2 gusting 5 17.8
2016-Dec-03 22:35 138 3 gusting 8 17.8
2016-Dec-03 22:30 121 2 gusting 8 17.8
2016-Dec-03 22:25 117 2 gusting 6 17.8
2016-Dec-03 22:20 104 2 gusting 6 17.8
2016-Dec-03 22:15 088 2 gusting 5 17.8
2016-Dec-03 22:10 064 2 gusting 5 17.8
2016-Dec-03 22:05 020 1 gusting 4 18.3
2016-Dec-03 22:00 023 1 gusting 4 18.3
2016-Dec-03 21:55 063 0 gusting 4 18.3
2016-Dec-03 21:50 013 2 gusting 6 18.3
2016-Dec-03 21:45 356 3 gusting 8 18.3
2016-Dec-03 21:40 347 3 gusting 8 18.3
2016-Dec-03 21:35 325 3 gusting 6 18.3
2016-Dec-03 21:30 324 4 gusting 10 18.3
2016-Dec-03 21:25 319 5 gusting 12 18.3
2016-Dec-03 21:20 307 6 gusting 12 18.9
2016-Dec-03 21:15 305 6 gusting 11 18.9
2016-Dec-03 21:10 307 5 gusting 13 18.9
2016-Dec-03 21:05 306 4 gusting 13 18.9
2016-Dec-03 21:00 302 4 gusting 12 18.9
2016-Dec-03 20:55 306 5 gusting 12 18.9
2016-Dec-03 20:50 307 5 gusting 11 19.4
2016-Dec-03 20:45 307 4 gusting 11 19.4
2016-Dec-03 20:40 312 4 gusting 10 19.4
2016-Dec-03 20:35 312 4 gusting 12 19.4
2016-Dec-03 20:30 305 4 gusting 12 19.4
2016-Dec-03 20:25 294 3 gusting 9 18.9
2016-Dec-03 20:20 300 4 gusting 9 18.9
2016-Dec-03 20:15 301 2 gusting 8 18.9
2016-Dec-03 20:10 287 2 gusting 6 18.9
2016-Dec-03 20:05 300 2 gusting 6 18.9
2016-Dec-03 20:00 311 4 gusting 9 18.9
2016-Dec-03 19:55 305 4 gusting 9 18.9
2016-Dec-03 19:50 298 2 gusting 8 19.4
2016-Dec-03 19:45 306 3 gusting 8 19.4
2016-Dec-03 19:40 340 2 gusting 7 19.4
2016-Dec-03 19:35 035 1 gusting 7 19.4
2016-Dec-03 19:30 062 1 gusting 3 19.4
2016-Dec-03 19:25 066 1 gusting 4 20.0
2016-Dec-03 19:20 040 1 gusting 4 20.0
2016-Dec-03 19:15 348 2 gusting 7 20.0
2016-Dec-03 19:10 326 2 gusting 7 20.0
2016-Dec-03 19:05 320 3 gusting 9 20.0
2016-Dec-03 19:00 317 6 gusting 15 20.0
2016-Dec-03 18:55 311 6 gusting 15 20.0
2016-Dec-03 18:50 304 4 gusting 12 20.0
2016-Dec-03 18:45 307 5 gusting 13 20.0
2016-Dec-03 18:40 310 6 gusting 13 20.0
2016-Dec-03 18:35 316 6 gusting 12 20.0
2016-Dec-03 18:30 323 4 gusting 10 20.0
2016-Dec-03 18:25 305 5 gusting 9 20.6
2016-Dec-03 18:20 280 4 gusting 11 20.6
2016-Dec-03 18:15 270 2 gusting 11 20.6
2016-Dec-03 18:10 250 1 gusting 4 20.6
2016-Dec-03 18:05 249 1 gusting 3 20.6
2016-Dec-03 18:00 259 1 gusting 6 20.6
2016-Dec-03 17:55 290 3 gusting 14 20.6
2016-Dec-03 17:50 293 2 gusting 14 20.6
2016-Dec-03 17:45 201 2 gusting 7 20.6
2016-Dec-03 17:40 145 4 gusting 13 20.6
2016-Dec-03 17:35 121 5 gusting 13 20.6
2016-Dec-03 17:30 112 4 gusting 8 20.6
2016-Dec-03 17:25 070 2 gusting 7 20.6
2016-Dec-03 17:20 052 2 gusting 7 20.6
2016-Dec-03 17:15 044 3 gusting 7 20.6
2016-Dec-03 17:10 020 3 gusting 7 20.6
2016-Dec-03 17:05 009 5 gusting 13 21.1
2016-Dec-03 17:00 004 6 gusting 13 21.1
2016-Dec-03 16:55 007 4 gusting 8 21.1
2016-Dec-03 16:50 351 5 gusting 13 21.1
2016-Dec-03 16:45 335 6 gusting 14 21.1
2016-Dec-03 16:40 320 6 gusting 14 21.7
2016-Dec-03 16:35 309 6 gusting 16 21.7
2016-Dec-03 16:30 307 8 gusting 16 21.7
2016-Dec-03 16:25 302 6 gusting 16 22.2
2016-Dec-03 16:20 305 6 gusting 15 22.2
2016-Dec-03 16:15 312 7 gusting 15 21.7
2016-Dec-03 16:10 310 8 gusting 17 22.2
2016-Dec-03 16:05 306 8 gusting 17 22.2
2016-Dec-03 16:00 309 7 gusting 15 22.2
2016-Dec-03 15:55 309 6 gusting 13 22.2
2016-Dec-03 15:50 310 6 gusting 13 22.2
2016-Dec-03 15:45 307 6 gusting 14 22.2
2016-Dec-03 15:40 349 6 gusting 14 22.2
2016-Dec-03 15:35 044 4 gusting 10 22.2
2016-Dec-03 15:30 078 4 gusting 8 21.7
2016-Dec-03 15:25 078 5 gusting 8 21.7
2016-Dec-03 15:20 066 5 gusting 9 22.2
2016-Dec-03 15:15 058 5 gusting 10 22.2
2016-Dec-03 15:10 034 5 gusting 10 22.8
2016-Dec-03 15:05 008 5 gusting 10 22.8
2016-Dec-03 15:00 339 3 gusting 8 22.2
2016-Dec-03 14:55 319 2 gusting 7 22.2
2016-Dec-03 14:50 330 4 gusting 12 22.2
2016-Dec-03 14:45 319 5 gusting 12 22.2
2016-Dec-03 14:40 311 5 gusting 11 22.2
2016-Dec-03 14:35 315 5 gusting 13 22.2
2016-Dec-03 14:30 316 6 gusting 13 22.2
2016-Dec-03 14:25 315 7 gusting 19 21.7
2016-Dec-03 14:20 310 8 gusting 19 21.7
2016-Dec-03 14:15 303 7 gusting 18 22.2
2016-Dec-03 14:10 301 6 gusting 14 22.2
2016-Dec-03 14:05 307 7 gusting 18 22.2
2016-Dec-03 14:00 310 8 gusting 18 22.2
2016-Dec-03 13:55 309 8 gusting 16 22.2
2016-Dec-03 13:50 310 9 gusting 21 22.2
2016-Dec-03 13:45 311 9 gusting 21 22.2
2016-Dec-03 13:40 309 7 gusting 16 22.8
2016-Dec-03 13:35 307 6 gusting 15 22.8
2016-Dec-03 13:30 315 7 gusting 15 22.2
2016-Dec-03 13:25 342 7 gusting 14 22.2
2016-Dec-03 13:20 018 6 gusting 11 22.2
2016-Dec-03 13:15 042 4 gusting 10 22.2
2016-Dec-03 13:10 064 5 gusting 10 22.2
2016-Dec-03 13:05 075 3 gusting 10 22.2
2016-Dec-03 13:00 095 2 gusting 7 21.7
2016-Dec-03 12:55 062 5 gusting 16 21.7
2016-Dec-03 12:50 044 7 gusting 16 21.7
2016-Dec-03 12:45 036 5 gusting 13 21.1
2016-Dec-03 12:40 005 3 gusting 10 21.1
2016-Dec-03 12:35 358 4 gusting 10 21.1
2016-Dec-03 12:30 019 4 gusting 11 21.1
2016-Dec-03 12:25 033 5 gusting 11 21.1
2016-Dec-03 12:20 016 5 gusting 9 21.1
2016-Dec-03 12:15 008 4 gusting 9 21.1
2016-Dec-03 12:10 034 2 gusting 6 21.1
2016-Dec-03 12:05 058 3 gusting 6 20.6
2016-Dec-03 12:00 075 2 gusting 6 20.6
2016-Dec-03 11:55 066 1 gusting 6 20.0
2016-Dec-03 11:50 044 1 gusting 3 20.0
2016-Dec-03 11:45 036 2 gusting 8 20.0
2016-Dec-03 11:40 034 3 gusting 8 20.0
2016-Dec-03 11:35 043 3 gusting 8 20.0
2016-Dec-03 11:30 068 1 gusting 4 20.0
2016-Dec-03 11:25 089 1 gusting 6 20.0
2016-Dec-03 11:20 068 2 gusting 6 20.0
2016-Dec-03 11:15 054 3 gusting 9 20.0
2016-Dec-03 11:10 050 3 gusting 9 20.0
2016-Dec-03 11:05 052 3 gusting 7 20.0
2016-Dec-03 11:00 048 5 gusting 9 20.0
2016-Dec-03 10:55 041 5 gusting 9 20.0
2016-Dec-03 10:50 055 4 gusting 8 19.4
2016-Dec-03 10:45 076 3 gusting 6 19.4
2016-Dec-03 10:40 073 2 gusting 6 19.4
2016-Dec-03 10:35 100 3 gusting 8 18.9
2016-Dec-03 10:30 080 2 gusting 8 18.9
2016-Dec-03 10:25 038 2 gusting 4 18.3
2016-Dec-03 10:20 071 1 gusting 4 18.3
2016-Dec-03 10:15 070 2 gusting 6 18.3
2016-Dec-03 10:10 068 3 gusting 7 17.8
2016-Dec-03 10:05 076 2 gusting 7 17.8
2016-Dec-03 10:00 075 2 gusting 6 17.8
2016-Dec-03 09:55 065 3 gusting 8 17.8
2016-Dec-03 09:50 058 3 gusting 8 17.8
2016-Dec-03 09:45 071 3 gusting 6 17.8
2016-Dec-03 09:40 081 3 gusting 6 17.8
2016-Dec-03 09:35 081 3 gusting 6 17.8
2016-Dec-03 09:30 082 2 gusting 6 18.3
2016-Dec-03 09:25 069 2 gusting 6 18.3
2016-Dec-03 09:20 085 2 gusting 6 18.3
2016-Dec-03 09:15 100 1 gusting 4 18.3
2016-Dec-03 09:10 065 1 gusting 4 18.3
2016-Dec-03 09:05 061 3 gusting 9 18.3
2016-Dec-03 09:00 071 4 gusting 9 18.3
2016-Dec-03 08:55 031 6 gusting 12 18.3
2016-Dec-03 08:50 325 5 gusting 12 18.9
2016-Dec-03 08:45 200 4 gusting 10 18.3
2016-Dec-03 08:40 154 6 gusting 13 17.8
2016-Dec-03 08:35 131 6 gusting 13 17.8
2016-Dec-03 08:30 128 5 gusting 10 17.8
2016-Dec-03 08:25 117 4 gusting 9 17.2
2016-Dec-03 08:20 110 2 gusting 7 17.8
2016-Dec-03 08:15 086 1 gusting 5 17.8
2016-Dec-03 08:10 016 1 gusting 5 17.8
2016-Dec-03 08:05 357 1 gusting 5 17.8
2016-Dec-03 08:00 345 2 gusting 6 17.8
2016-Dec-03 07:55 326 5 gusting 14 17.8
2016-Dec-03 07:50 311 6 gusting 14 17.8
2016-Dec-03 07:45 310 8 gusting 18 17.8
2016-Dec-03 07:40 312 9 gusting 18 17.8
2016-Dec-03 07:35 310 8 gusting 15 17.8
2016-Dec-03 07:30 310 8 gusting 16 18.3
2016-Dec-03 07:25 313 7 gusting 16 18.3
2016-Dec-03 07:20 321 7 gusting 18 18.9
2016-Dec-03 07:15 340 6 gusting 18 20.0
2016-Dec-03 07:10 051 1 gusting 5 20.0
2016-Dec-03 07:05 034 2 gusting 4 20.6
2016-Dec-03 07:00 050 2 gusting 5 20.6
2016-Dec-03 06:55 120 2 gusting 8 20.6
2016-Dec-03 06:50 145 4 gusting 8 20.6
2016-Dec-03 06:45 135 4 gusting 7 20.6
2016-Dec-03 06:40 119 3 gusting 6 20.6
2016-Dec-03 06:35 128 3 gusting 7 20.6
2016-Dec-03 06:30 129 3 gusting 7 20.6
2016-Dec-03 06:25 123 1 gusting 7 20.6
2016-Dec-03 06:20 135 2 gusting 6 20.6
2016-Dec-03 06:15 190 2 gusting 6 20.6
2016-Dec-03 06:10 246 1 gusting 6 20.6
2016-Dec-03 06:05 177 2 gusting 6 20.6
2016-Dec-03 06:00 185 2 gusting 9 20.6
2016-Dec-03 05:55 209 3 gusting 9 20.0
2016-Dec-03 05:50 171 3 gusting 9 20.0
2016-Dec-03 05:45 099 1 gusting 6 20.6
2016-Dec-03 05:40 017 2 gusting 7 20.6
2016-Dec-03 05:35 355 2 gusting 7 20.6
2016-Dec-03 05:30 055 2 gusting 6 20.6
2016-Dec-03 05:25 107 3 gusting 8 20.0
2016-Dec-03 05:20 131 4 gusting 9 19.4
2016-Dec-03 05:15 138 4 gusting 9 19.4
2016-Dec-03 05:10 136 4 gusting 7 18.9
2016-Dec-03 05:05 122 2 gusting 6 19.4
2016-Dec-03 05:00 126 1 gusting 6 18.9
2016-Dec-03 04:55 148 1 gusting 4 18.9
2016-Dec-03 04:50 146 3 gusting 6 18.9
2016-Dec-03 04:45 125 4 gusting 9 18.9
2016-Dec-03 04:40 123 4 gusting 9 18.3
2016-Dec-03 04:35 146 3 gusting 8 18.3
2016-Dec-03 04:30 158 4 gusting 9 18.3
2016-Dec-03 04:25 167 5 gusting 9 18.3
2016-Dec-03 04:20 174 4 gusting 7 18.3
2016-Dec-03 04:15 165 3 gusting 6 18.3
2016-Dec-03 04:10 164 3 gusting 6 18.3
2016-Dec-03 04:05 162 3 gusting 6 18.3
2016-Dec-03 04:00 152 4 gusting 6 18.3
2016-Dec-03 03:55 155 4 gusting 8 18.3
2016-Dec-03 03:50 154 4 gusting 8 18.3
2016-Dec-03 03:45 160 4 gusting 6 17.8
2016-Dec-03 03:40 172 4 gusting 6 17.8
2016-Dec-03 03:35 174 4 gusting 6 17.8
2016-Dec-03 03:30 173 4 gusting 7 17.8
2016-Dec-03 03:25 184 2 gusting 7 18.3
2016-Dec-03 03:20 186 3 gusting 8 18.3
2016-Dec-03 03:15 179 3 gusting 8 18.3
2016-Dec-03 03:10 174 2 gusting 7 18.3
2016-Dec-03 03:05 186 3 gusting 6 18.3
2016-Dec-03 03:00 208 3 gusting 6 18.3
2016-Dec-03 02:55 203 3 gusting 7 17.8
2016-Dec-03 02:50 184 3 gusting 7 17.8
2016-Dec-03 02:45 181 3 gusting 6 17.8
2016-Dec-03 02:40 181 3 gusting 7 18.3
2016-Dec-03 02:35 171 4 gusting 7 18.3
2016-Dec-03 02:30 165 5 gusting 7 18.3
2016-Dec-03 02:25 158 4 gusting 6 18.3
2016-Dec-03 02:20 150 3 gusting 7 18.3
2016-Dec-03 02:15 156 3 gusting 7 17.8
2016-Dec-03 02:10 169 3 gusting 6 17.8
2016-Dec-03 02:05 179 3 gusting 5 17.8
2016-Dec-03 02:00 181 3 gusting 8 17.8
2016-Dec-03 01:55 175 3 gusting 8 17.8
2016-Dec-03 01:50 170 4 gusting 9 17.8
2016-Dec-03 01:45 170 5 gusting 10 17.8
2016-Dec-03 01:40 171 4 gusting 10 17.8
2016-Dec-03 01:35 163 4 gusting 8 18.3
2016-Dec-03 01:30 164 4 gusting 8 18.3
2016-Dec-03 01:25 169 4 gusting 7 18.3
2016-Dec-03 01:20 169 4 gusting 7 18.3
2016-Dec-03 01:15 171 3 gusting 7 18.3
2016-Dec-03 01:10 171 3 gusting 6 18.3
2016-Dec-03 01:05 179 3 gusting 6 18.3
2016-Dec-03 01:00 187 2 gusting 5 18.3
2016-Dec-03 00:55 173 2 gusting 5 18.3
2016-Dec-03 00:50 169 2 gusting 6 18.3
2016-Dec-03 00:45 170 3 gusting 6 18.3
2016-Dec-03 00:40 167 3 gusting 6 18.3
2016-Dec-03 00:35 161 2 gusting 4 18.3
2016-Dec-03 00:30 175 2 gusting 5 18.3
2016-Dec-03 00:25 192 2 gusting 5 18.3
2016-Dec-03 00:20 182 2 gusting 4 18.9
2016-Dec-03 00:15 171 3 gusting 7 18.9
2016-Dec-03 00:10 172 4 gusting 7 18.3
2016-Dec-03 00:05 166 4 gusting 7 18.3
2016-Dec-02 23:55 166 4 gusting 8 18.3
2016-Dec-02 23:50 171 4 gusting 8 18.3
2016-Dec-02 23:45 173 3 gusting 6 18.3
2016-Dec-02 23:40 189 3 gusting 6 18.9
2016-Dec-02 23:35 209 2 gusting 5 18.9
2016-Dec-02 23:30 207 2 gusting 5 18.9
2016-Dec-02 23:25 206 2 gusting 5 18.9
2016-Dec-02 23:20 205 1 gusting 5 19.4
2016-Dec-02 23:15 153 1 gusting 6 19.4
2016-Dec-02 23:10 163 2 gusting 6 18.9
2016-Dec-02 23:05 167 3 gusting 6 18.9
2016-Dec-02 23:00 159 4 gusting 6 18.9
2016-Dec-02 22:55 155 3 gusting 6 18.9
2016-Dec-02 22:50 157 3 gusting 6 18.9
2016-Dec-02 22:45 164 4 gusting 6 18.9
2016-Dec-02 22:40 158 3 gusting 6 18.9
2016-Dec-02 22:35 160 3 gusting 5 18.9
2016-Dec-02 22:30 162 3 gusting 6 18.9
2016-Dec-02 22:25 159 4 gusting 8 18.9
2016-Dec-02 22:20 157 5 gusting 8 18.9
2016-Dec-02 22:15 151 4 gusting 9 18.9
2016-Dec-02 22:10 154 4 gusting 9 18.9
2016-Dec-02 22:05 162 4 gusting 6 18.9
2016-Dec-02 22:00 167 4 gusting 7 18.3
2016-Dec-02 21:55 165 3 gusting 7 18.3
2016-Dec-02 21:50 162 3 gusting 6 18.9
2016-Dec-02 21:45 164 4 gusting 8 18.9
2016-Dec-02 21:40 165 4 gusting 8 18.9
2016-Dec-02 21:35 166 4 gusting 7 18.9
2016-Dec-02 21:30 167 3 gusting 6 18.9
2016-Dec-02 21:25 170 2 gusting 6 18.9
2016-Dec-02 21:20 172 2 gusting 5 18.9
2016-Dec-02 21:15 174 2 gusting 5 18.9
2016-Dec-02 21:10 172 2 gusting 7 18.9
2016-Dec-02 21:05 173 2 gusting 7 18.9
2016-Dec-02 21:00 181 1 gusting 4 18.9
2016-Dec-02 20:55 184 1 gusting 4 18.9
2016-Dec-02 20:50 186 1 gusting 4 18.9
2016-Dec-02 20:45 179 2 gusting 6 18.9
2016-Dec-02 20:40 183 2 gusting 6 18.9
2016-Dec-02 20:35 195 2 gusting 6 18.9
2016-Dec-02 20:30 176 3 gusting 7 18.9
2016-Dec-02 20:25 163 3 gusting 7 18.9
2016-Dec-02 20:20 166 2 gusting 7 19.4
2016-Dec-02 20:15 158 1 gusting 5 19.4
2016-Dec-02 20:10 149 2 gusting 6 19.4
2016-Dec-02 20:05 155 3 gusting 6 19.4
2016-Dec-02 20:00 167 3 gusting 6 20.0
2016-Dec-02 19:55 185 2 gusting 5 20.0
2016-Dec-02 19:50 198 2 gusting 5 19.4
2016-Dec-02 19:45 193 2 gusting 5 19.4
2016-Dec-02 19:40 191 1 gusting 4 20.0
2016-Dec-02 19:35 187 2 gusting 4 20.0
2016-Dec-02 19:30 178 2 gusting 4 20.0
2016-Dec-02 19:25 169 1 gusting 4 20.0
2016-Dec-02 19:20 167 1 gusting 5 20.0
2016-Dec-02 19:15 164 2 gusting 6 20.0
2016-Dec-02 19:10 164 1 gusting 6 20.6
2016-Dec-02 19:05 169 0 gusting 4 20.6
2016-Dec-02 19:00 170 1 gusting 4 20.0
2016-Dec-02 18:55 172 2 gusting 6 20.0
2016-Dec-02 18:45 175 2 gusting 5 20.6
2016-Dec-02 18:40 181 2 gusting 5 20.6
2016-Dec-02 18:35 191 1 gusting 4 20.6
2016-Dec-02 18:30 196 0 gusting 2 20.6
2016-Dec-02 18:25 196 0 gusting 2 20.6
2016-Dec-02 18:20 198 1 gusting 2 21.1
2016-Dec-02 18:15 200 1 gusting 4 21.1
2016-Dec-02 18:10 199 1 gusting 4 21.1
2016-Dec-02 18:05 197 1 gusting 3 21.1
2016-Dec-02 18:00 198 1 gusting 3 21.7
2016-Dec-02 17:55 199 0 gusting 2 21.7
2016-Dec-02 17:50 199 0 gusting 3 21.7
2016-Dec-02 17:45 201 0 gusting 3 21.7
2016-Dec-02 17:40 222 1 gusting 3 22.2
2016-Dec-02 17:35 256 1 gusting 3 22.2
2016-Dec-02 17:30 265 1 gusting 3 22.2
2016-Dec-02 17:25 275 0 gusting 3 22.2
2016-Dec-02 17:20 275 1 gusting 5 22.2
2016-Dec-02 17:15 275 1 gusting 5 22.2
2016-Dec-02 17:10 276 0 gusting 2 22.8
2016-Dec-02 17:05 273 0 gusting 3 22.8
2016-Dec-02 17:00 262 1 gusting 6 22.8
2016-Dec-02 16:55 247 2 gusting 6 22.8
2016-Dec-02 16:50 231 2 gusting 7 22.8
2016-Dec-02 16:45 225 2 gusting 7 22.8
2016-Dec-02 16:40 217 1 gusting 6 22.8
2016-Dec-02 16:35 038 1 gusting 8 22.8
2016-Dec-02 16:30 351 3 gusting 8 22.8
2016-Dec-02 16:25 334 4 gusting 8 22.8
2016-Dec-02 16:20 348 3 gusting 7 23.3
2016-Dec-02 16:15 011 2 gusting 7 22.8
2016-Dec-02 16:10 357 3 gusting 7 22.8
2016-Dec-02 16:05 354 3 gusting 7 22.8
2016-Dec-02 16:00 356 3 gusting 7 22.8
2016-Dec-02 15:55 355 3 gusting 9 22.8
2016-Dec-02 15:50 003 3 gusting 9 23.3
2016-Dec-02 15:45 003 1 gusting 6 23.3
2016-Dec-02 15:40 344 1 gusting 6 23.3
2016-Dec-02 15:35 353 2 gusting 6 23.3
2016-Dec-02 15:30 024 2 gusting 5 23.3
2016-Dec-02 15:25 044 1 gusting 4 23.3
2016-Dec-02 15:20 056 1 gusting 4 23.3
2016-Dec-02 15:15 010 2 gusting 8 23.3
2016-Dec-02 15:10 008 3 gusting 8 23.3
2016-Dec-02 15:05 025 4 gusting 8 23.3
2016-Dec-02 15:00 013 4 gusting 9 23.3
2016-Dec-02 14:55 004 2 gusting 9 23.3
2016-Dec-02 14:50 005 3 gusting 7 23.3
2016-Dec-02 14:45 010 3 gusting 8 23.3
2016-Dec-02 14:40 009 3 gusting 8 23.9
2016-Dec-02 14:35 015 3 gusting 6 23.3
2016-Dec-02 14:30 029 3 gusting 7 23.3
2016-Dec-02 14:25 007 3 gusting 10 23.3
2016-Dec-02 14:20 347 4 gusting 10 23.3
2016-Dec-02 14:15 345 4 gusting 7 23.3
2016-Dec-02 14:10 342 3 gusting 8 23.3
2016-Dec-02 14:05 347 3 gusting 8 23.3
2016-Dec-02 14:00 349 3 gusting 6 23.3
2016-Dec-02 13:55 345 3 gusting 6 23.3
2016-Dec-02 13:50 359 2 gusting 6 23.3
2016-Dec-02 13:45 005 2 gusting 6 23.3
2016-Dec-02 13:40 010 2 gusting 6 23.3
2016-Dec-02 13:35 008 2 gusting 8 23.3
2016-Dec-02 13:30 009 3 gusting 8 23.3
2016-Dec-02 13:25 014 3 gusting 9 23.3
2016-Dec-02 13:20 005 5 gusting 9 23.3
2016-Dec-02 13:15 356 4 gusting 8 23.3
2016-Dec-02 13:10 007 3 gusting 8 23.3
2016-Dec-02 13:05 020 3 gusting 8 23.3
2016-Dec-02 13:00 016 2 gusting 7 22.8
2016-Dec-02 12:55 359 1 gusting 5 22.8
2016-Dec-02 12:50 349 2 gusting 9 22.8
2016-Dec-02 12:45 355 2 gusting 9 23.3
2016-Dec-02 12:40 007 1 gusting 6 23.3
2016-Dec-02 12:35 352 2 gusting 6 23.3
2016-Dec-02 12:30 343 1 gusting 4 23.3
2016-Dec-02 12:25 349 0 gusting 4 23.3
2016-Dec-02 12:20 051 23.3
2016-Dec-02 12:15 050 0 gusting 6 22.8
2016-Dec-02 12:10 006 1 gusting 6 22.8
2016-Dec-02 12:05 354 3 gusting 8 22.8
2016-Dec-02 12:00 018 3 gusting 8 23.3